Regional Weather Roundup
Issued by NWS

Home | Current Version | Previous Version | Text Only | Print | Product List | Glossary Off
Versions: 1 2 3 4 5 6 7 8 9 10 11 12 13 14 15 16 17 18 19 20 21 22 23 24 25 26 27 28 29 30 31 32 33 34 35 36 37 38 39 40 41 42 43 44 45 46 47 48 49 50

000
ASUS43 KFSD 240210
RWRSD

WEATHER ROUNDUP FOR SOUTH DAKOTA
NATIONAL WEATHER SERVICE SIOUX FALLS SD
900 PM CDT THU OCT 23 2014

NOTE: "FAIR" INDICATES FEW OR NO CLOUDS BELOW 12,000 FEET WITH NO
SIGNIFICANT WEATHER AND/OR OBSTRUCTIONS TO VISIBILITY.


SDZ001>005-009-010-012>017-240300-
NORTHWEST AND NORTH CENTRAL SOUTH DAKOTA

CITY           SKY/WX    TMP DP  RH WIND       PRES   REMARKS
BUFFALO          N/A     53  30  41 W7        29.83S
FAITH            N/A     57  30  35 W5        29.89S
MOBRIDGE       MOCLDY    48  39  71 CALM      29.85S
$$

SDZ012>016-024>037-041>051-057-063-072>074-240300-
SOUTHWEST AND SOUTH CENTRAL SOUTH DAKOTA

CITY           SKY/WX    TMP DP  RH WIND       PRES   REMARKS
RAPID CTY ARPT PTCLDY    47  34  60 NW7       29.93R
PIERRE         CLOUDY    50  35  56 E5        29.84F
CUSTER         PTCLDY    47  27  45 NW5       30.02S
ELLSWORTH AFB  PTCLDY    49  34  57 W5        29.92S
PHILIP         CLOUDY    49  33  54 NW6       29.88R
PINE RIDGE     PTCLDY    41  35  79 CALM      29.94R
SPEARFISH      FAIR      46  32  57 SW6       29.95F
WINNER         FAIR      61  35  37 S8        29.87F
$$

SDZ004>011-016>023-039-040-240300-
NORTHEAST SOUTH DAKOTA

CITY           SKY/WX    TMP DP  RH WIND       PRES   REMARKS
ABERDEEN       CLOUDY    51  43  74 S6        29.87F
WATERTOWN      CLEAR     52  44  74 SE7       29.90F
SISSETON         N/A     50  41  71 S8        29.86F
$$

SDZ017-020-022-023-036>040-048>070-240300-
SOUTHEAST SOUTH DAKOTA

CITY           SKY/WX    TMP DP  RH WIND       PRES   REMARKS
SIOUX FALLS    MOCLDY    60  45  57 S13       29.95S
HURON          MOCLDY    53  43  68 SE5       29.88F
CHAMBERLAIN    MOCLDY    52  41  66 SE5       29.86F
MITCHELL       MOCLDY    56  46  69 S13       29.90S
YANKTON        PTCLDY    61  48  63 S5        29.94S
$$

ABBREVIATIONS USED IN REMARKS
   TC - TEMPERATURE IN CELSIUS
  WCI - WIND CHILL INDEX
   HX - HEAT INDEX
  VSB - VISIBILITY




USA.gov is the U.S. government's official web portal to all federal, state and local government web resources and services.